Weather Roundup
Issued by NWS Springfield, MO

Home | Current Version | Previous Version | Text Only | Print | Product List | Glossary On
Versions: 1 2 3 4 5 6 7 8 9 10 11 12 13 14 15 16 17 18 19 20 21 22 23 24 25 26 27 28 29 30 31 32 33 34 35 36 37 38 39 40 41 42 43 44 45 46 47 48 49 50
000
NZUS99 KSGF 270107
HRRSGF

HOURLY WEATHER
NATIONAL WEATHER SERVICE SPRINGFIELD MO
700 PM CST SUN FEB 26 2017

......SGF CWA......

CITY           SKY/WX    TMP DP  RH WIND       PRES   REMARKS
SPRINGFIELD    CLOUDY    43  31  62 SE12      29.99R
JOPLIN         MOCLDY    40  34  79 E5        29.98R
WEST PLAINS    CLOUDY    46  24  42 E5        30.06R
ROLLA          CLOUDY    37  35  92 SE6       30.05R WCI  32
OSAGE BEACH    LGT RAIN  38  37  97 E3        30.06R
BRANSON        CLOUDY    45  25  45 E8        30.02R

......SURROUNDING SGF CWA......

CITY           SKY/WX    TMP DP  RH WIND       PRES   REMARKS
CHANUTE        CLEAR     42  32  67 E6        29.99R
PARSONS        CLEAR     40  32  73 CALM      29.99R
COFFEYVILLE    CLEAR     40  32  73 NE7       29.98R
EMPORIA        CLEAR     43  26  51 SE7       29.96R
GROVE OK       CLOUDY    48  32  53 E6        29.98R
ROGERS AR      CLOUDY    47  29  49 E7        29.98R
SILOAM SPRINGS CLOUDY    48  27  43 SE7       29.96S
HARRISON AR    CLOUDY    47  27  45 E5        30.01R
NEAR YELLVILLE CLOUDY    50  25  37 SE3       30.01R

......KANSAS AND MISSOURI......

CITY           SKY/WX    TMP DP  RH WIND       PRES   REMARKS
KANSAS CTY INT CLEAR     38  26  62 SE8       29.98R WCI  32
DOWNTOWN KC    CLEAR     46  34  62 S12       29.99R
COLUMBIA       CLOUDY    40  36  86 S14       30.05R WCI  32
SEDALIA        CLOUDY    41  36  82 S13       30.05R
ST JOSEPH      CLEAR     42  26  53 S3        29.97R
ST LOUIS       CLOUDY    43  32  65 S9        30.09R
SPIRIT OF STL  CLOUDY    42  34  73 S6        30.09R
KIRKSVILLE     CLEAR     39  21  48 S8        30.00R WCI  33
WICHITA        PTCLDY    47  23  38 N6        29.95R
TOPEKA         CLEAR     48  25  40 W3        29.97R
OLATHE         CLEAR     41  36  82 SE9       29.99R

......TENNESSEE......

CITY           SKY/WX    TMP DP  RH WIND       PRES   REMARKS
MEMPHIS        CLOUDY    58  25  28 E7        30.05R
NASHVILLE      MOCLDY    50  20  30 E6        30.14S

......ARKANSAS.......

CITY           SKY/WX    TMP DP  RH WIND       PRES   REMARKS
FAYETTEVILLE   CLOUDY    48  30  49 SE3       29.97R
FT SMITH       CLOUDY    52  33  48 E7        29.97R
LITTLE ROCK    LGT RAIN  50  46  86 CALM      30.01R

......OKLAHOMA.......

CITY           SKY/WX    TMP DP  RH WIND       PRES   REMARKS
TULSA          PTCLDY    53  33  46 CALM      29.92R
PONCA CITY     CLEAR     48  29  47 CALM      29.94R
MCALESTER      CLOUDY    54  34  46 SE3       29.94R
OKLAHOMA CITY  PTCLDY    53  33  46 NW6       29.91R

......IOWA............

CITY           SKY/WX    TMP DP  RH WIND       PRES   REMARKS
DES MOINES     PTCLDY    38  19  46 N5        29.98R WCI  34
QUAD CITIES    MOCLDY    43  29  57 S9        29.97R

......ILLINOIS........

CITY           SKY/WX    TMP DP  RH WIND       PRES   REMARKS
QUINCY         CLEAR     41  22  46 S9        30.02R
CHICAGO        CLOUDY    45  26  47 SW16G22   29.98R




USA.gov is the U.S. government's official web portal to all federal, state and local government web resources and services.